Weather History for KLOL - May, 2013

Change the Weather History Date:

Thursday, May 9, 2013

  Actual Average Record
Temperature  
Mean Temperature 60 °F -  
Max Temperature 80 °F 72 °F 91 °F (2012)
Min Temperature 39 °F 42 °F 21 °F (1950)
Degree Days  
Heating Degree Days 6    
Growing Degree Days 10 (Base 50)    
Moisture  
Dew Point 37 °F    
Average Humidity 47    
Maximum Humidity 86    
Minimum Humidity 16    
Precipitation  
Precipitation 0.00 in - - ()
Sea Level Pressure  
Sea Level Pressure 30.04 in    
Wind  
Wind Speed 6 mph (NE)    
Max Wind Speed 13 mph    
Max Gust Speed -    
Visibility 10 miles    
Events      
Averages and records for this station are not official NWS values.
T = Trace of Precipitation, MM = Missing Value Source: NWS Daily Summary

Daily Weather History Graph

Daily Weather History Graph

Search for Another Location

Airport or City:

Trip Planner

Search our weather history database for the weather conditions in past years. The results will help you decide how hot, cold, wet, or windy it might be!

Date:

Astronomy

May. 09, 2013 Rise Set
Actual Time 5:44 AM PDT 7:57 PM PDT
Civil Twilight 5:14 AM PDT 8:27 PM PDT
Nautical Twilight 4:37 AM PDT 9:04 PM PDT
Astronomical Twilight 3:56 AM PDT 9:45 PM PDT
Moon 5:32 AM PDT (5/9) 7:57 PM PDT (5/9)
Length of Visible Light 15h 13m
Length of Day
14h 13m
Waning Crescent, 0% of the Moon is Illuminated
May 9
Waning Crescent
May 9
New
May 17
First Quarter
May 24
Full
May 31
Last Quarter

Hourly Weather History & Observations

Time (PDT) Temp. Windchill Dew Point Humidity Pressure Visibility Wind Dir Wind Speed Gust Speed Precip Events Conditions
12:53 AM 53.1 °F - 42.1 °F 66% 30.04 in 10.0 mi North 5.8 mph - N/A   Clear
1:53 AM 46.0 °F 44.8 °F 39.0 °F 76% 30.04 in 10.0 mi North 3.5 mph - N/A   Clear
2:53 AM 42.1 °F - 37.0 °F 82% 30.05 in 10.0 mi Calm Calm - N/A   Clear
3:53 AM 39.9 °F 37.8 °F 36.0 °F 86% 30.07 in 10.0 mi South 3.5 mph - N/A   Clear
4:53 AM 43.0 °F - 37.9 °F 82% 30.06 in 10.0 mi Calm Calm - N/A   Clear
5:53 AM 39.9 °F 36.7 °F 36.0 °F 86% 30.07 in 10.0 mi North 4.6 mph - N/A   Clear
6:53 AM 48.0 °F - 41.0 °F 77% 30.08 in 10.0 mi East 4.6 mph - N/A   Clear
7:53 AM 57.9 °F - 43.0 °F 58% 30.08 in 10.0 mi NE 11.5 mph - N/A   Clear
8:53 AM 63.0 °F - 44.1 °F 50% 30.09 in 10.0 mi NE 10.4 mph - N/A   Clear
10:53 AM 68.0 °F - 43.0 °F 40% 30.09 in 10.0 mi NNE 8.1 mph - N/A   Clear
11:53 AM 72.0 °F - 39.9 °F 31% 30.06 in 10.0 mi Variable 6.9 mph - N/A   Clear
12:53 PM 73.9 °F - 36.0 °F 25% 30.06 in 10.0 mi Variable 3.5 mph - N/A   Clear
1:53 PM 77.0 °F - 37.0 °F 24% 30.04 in 10.0 mi North 8.1 mph - N/A   Clear
2:53 PM 78.1 °F - 35.1 °F 21% 30.02 in 10.0 mi Variable 5.8 mph - N/A   Clear
3:53 PM 80.1 °F - 35.1 °F 20% 29.99 in 10.0 mi North 10.4 mph - N/A   Clear
4:53 PM 79.0 °F - 32.0 °F 18% 29.98 in 10.0 mi Variable 3.5 mph - N/A   Partly Cloudy
5:53 PM 80.1 °F - 30.9 °F 17% 29.98 in 10.0 mi North 8.1 mph - N/A   Partly Cloudy
6:53 PM 79.0 °F - 28.9 °F 16% 29.97 in 10.0 mi NNE 10.4 mph - N/A   Partly Cloudy
7:53 PM 73.0 °F - 34.0 °F 24% 29.99 in 10.0 mi NE 12.7 mph - N/A   Overcast
8:53 PM 66.9 °F - 36.0 °F 32% 30.02 in 7.0 mi South 6.9 mph - N/A   Clear
10:53 PM 54.0 °F - 36.0 °F 51% 30.08 in 10.0 mi SE 9.2 mph - N/A   Clear
11:53 PM 57.9 °F - 37.9 °F 47% 30.08 in 10.0 mi NNE 8.1 mph - N/A   Mostly Cloudy